Find Starlink 34869

NORAD ID: 65371 Int'l Des: 2025-190 Owner: SPXS Country: US Constellation: starlink operational
LEOCIRCULAR

Live-Position

3D-Globus wird geladen...

Über Starlink 34869

Beschreibung wird geladen...

Nächste Überflüge

Passes for default location (London). Set your location on the main map for personalized predictions.

Höhenverlauf

Loading altitude history...

Zweizeiliger Elementsatz

1 65371U 25190W 26106.95180658 .00017200 00000-0 59135-3 0 9992
2 65371 53.1602 350.4270 0001335 92.9824 267.1330 15.30208657 35612
Epoch: 16. Apr. 2026 • Age: 12 hours

Aktueller Status

Höhe 475.5 km
Geschwindigkeit 7.63 km/s
Subsatellitenpunkt 3.57°N, 161.22°E
Startdatum 28. Aug. 2025
Alter 0.6 years
Typ internet

Technische Details

Klassifizierung Payload
Masse 575.00 kg
Trockenmasse 530.00 kg
Gesamtmasse 575.00 kg
Länge 0.30 m
Durchmesser 4.10 m
Spannweite 29.00 m
Form Box + pan
Hersteller SPXS
Bus-Typ Starlink V2MO
Phasenstatus In Orbit
Besitzer/Staat SPXS/US

Most Searched